Regional Weather Roundup
Issued by NWS

Home | Current Version | Previous Version | Text Only | Print | Product List | Glossary Off
Versions: 1 2 3 4 5 6 7 8 9 10 11 12 13 14 15 16 17 18 19 20 21 22 23 24 25 26 27 28 29 30 31 32 33 34 35 36 37 38 39 40 41 42 43 44 45 46 47 48 49 50

000
ASUS43 KLMK 172110
RWRKY
KENTUCKY REGIONAL WEATHER ROUNDUP
NATIONAL WEATHER SERVICE LOUISVILLE KY
400 PM EST WED JAN 17 2018

NOTE "FAIR" INDICATES FEW OR NO CLOUDS BELOW 12,000 FEET
WITH NO SIGNIFICANT WEATHER AND/OR OBSTRUCTIONS TO VISIBILITY.

KYZ001>023-026-027-061>063-070>075-172200-
WESTERN AND SOUTH CENTRAL KENTUCKY

CITY           SKY/WX    TMP DP  RH WIND       PRES   REMARKS
PADUCAH        FAIR      18   7  62 SW7       30.65F WCI   9
HENDERSON      FAIR      18   8  65 SW6       30.65S WCI  10
OWENSBORO      FAIR      21   9  59 SW7       30.64S WCI  12
HOPKINSVILLE   FAIR      15   5  66 N5        30.63F WCI   7
BOWLING GREEN  CLOUDY    19  10  68 VRB3      30.62F
GLASGOW        CLOUDY    17  10  71 W6        30.59S WCI   9
$$

KYZ024-025-028>034-038-045-046-053-172200-
NORTH CENTRAL KENTUCKY

CITY           SKY/WX    TMP DP  RH WIND       PRES   REMARKS
LOUISVILLE/SDF PTSUNNY   19  10  68 SW7       30.58S WCI  10
LOUISVILLE/LOU CLOUDY    19  12  74 VRB3      30.59S
FORT KNOX      PTSUNNY   16   8  69 SW5       30.56S WCI   9
$$

KYZ035>037-039>044-047>052-055>060-089>105-172200-
NORTHEAST KENTUCKY

CITY           SKY/WX    TMP DP  RH WIND       PRES   REMARKS
LEXINGTON      FAIR      16   7  67 W8        30.53F WCI   5
COVINGTON      PTSUNNY   19  11  70 SW6       30.50S WCI  11
FRANKFORT      PTSUNNY   16   6  65 W5        30.54F WCI   9
$$

KYZ054-064>069-076>088-106>120-172200-
SOUTHEAST KENTUCKY

CITY           SKY/WX    TMP DP  RH WIND       PRES   REMARKS
JACKSON        CLOUDY    12   5  73 CALM      30.47S
LONDON         CLOUDY    15   6  67 NW7       30.49F WCI   5
SOMERSET       FAIR      18   7  62 N6        30.55S WCI   9
MIDDLESBORO    CLOUDY    15   7  70 NW7       30.50R WCI   5
MONTICELLO     MOCLDY    16   8  71 W7        30.56S WCI   6
$$





USA.gov is the U.S. government's official web portal to all federal, state and local government web resources and services.